Location: Most
(50.5330°N, 13.6500°E)
Time: 04:49:08
(UTC+02:00)

ISS - Pass Details

Date: 23 May 2021
Orbit: 417 x 422 km, 51.6° (Epoch: 13 June)

Event Time Altitude Azimuth Distance (km) Brightness Sun altitude
Rises 22:09:43 0° 277° (W) 2,365 0.9 -9.2°
Reaches altitude 10° 22:11:50 10° 279° (W) 1,502 -0.2 -9.4°
Maximum altitude 22:15:12 73° 5° (N) 444 -3.5 -9.8°
Drops below altitude 10° 22:18:34 10° 91° (E) 1,503 -1.3 -10.1°
Enters shadow 22:19:24 - 92° (E) 1,840 -0.9 -10.2°
